SCP
0 0 0 0 0 0 0 0 0 0 0 0 0 0 0 0 0 0 0 0 0 0 0 0 0 0 0 0 0 0 0 0 0 0 0 0 0 0 0 0 0 0 0 0 0 0 0 0 0
0 0 0 0 0 0 0 0 0 0 0 0 0 0 0 0 0 0 0 0 0 0 0 0 0 0 0 0 0 0 0 0 0 0 0 0 0 0 0 0 0 0 0 0 0 0 0 0 0
0 0 0 0 0 0 0 0 0 0 0 0 0 0 0 0 0 0 0 0 0 0 0 0 0 0 0 0 0 0 0 0 0 0 0 0 0 0 0 0 0 0 0 0 0 0 0 0 0
0 0 0 0 0 0 0 0 0 0 0 0 0 0 0 0 0 0 0 0 0 0 0 0 0 0 0 0 0 0 0 0 0 0 0 0 0 0 0 0 0 0 0 0 0 0 0 0 0
0 0 0 0 0 0 0 0 0 0 0 0 0 0 0 0 0 0 0 0 0 0 0 0 0 0 0 0 0 0 0 0 0 0 0 0 0 0 0 0 0 0 0 0 0 0 0 0 0
0 0 0 0 0 0 0 0 0 0 0 0 0 0 0 0 0 0 0 0 0 0 0 0 0 0 0 0 0 0 0 0 0 0 0 0 0 0 0 0 0 0 0 0 0 0 0 0 0
0 0 0 0 0 0 0 0 0 0 0 0 0 0 0 0 0 0 0 0 0 0 0 0 0 0 0 0 0 0 0 0 0 0 0 0 0 0 0 0 0 0 0 0 0 0 0 0 0
0 0 0 0 0 0 0 0 0 0 0 0 0 0 0 0 0 0 0 0 0 0 0 0 0 0 0 0 0 0 0 0 0 0 0 0 0 0 0 0 0 0 0 0 0 0 0 0 0
0 0 0 0 0 0 0 0 0 0 0 0 0 0 0 0 0 0 0 0 0 0 0 0 0 0 0 0 0 0 0 0 0 0 0 0 0 0 0 0 0 0 0 0 0 0 0 0 0
0 0 0 0 0 0 0 0 0 0 0 0 0 0 0 0 0 0 0 0 0 0 0 0 0 0 0 0 0 0 0 0 0 0 0 0 0 0 0 0 0 0 0 0 0 0 0 0 0
0 0 0 0 0 0 0 0 0 0 0 0 0 0 0 0 0 0 0 0 0 0 0 0 0 0 0 0 0 0 0 0 0 0 0 0 0 0 0 0 0 0 0 0 0 0 0 0 0
0 0 0 0 0 0 0 0 0 0 0 0 0 0 0 0 0 0 0 0 0 0 0 0 0 0 0 0 0 0 0 0 0 0 0 0 0 0 0 0 0 0 0 0 0 0 0 0 0
0 0 0 0 0 0 0 0 0 0 0 0 0 0 0 0 0 0 0 0 0 0 0 0 0 0 0 0 0 0 0 0 0 0 0 0 0 0 0 0 0 0 0 0 0 0 0 0 0
0 0 0 0 0 0 0 0 0 0 0 0 0 0 0 0 0 0 0 0 0 0 0 0 0 0 0 0 0 0 0 0 0 0 0 0 0 0 0 0 0 0 0 0 0 0 0 0 0
0 0 0 0 0 0 0 0 0 0 0 0 0 0 0 0 0 0 0 0 0 0 0 0 0 0 0 0 0 0 0 0 0 0 0 0 0 0 0 0 0 0 0 0 0 0 0 0 0
0 0 0 0 0 0 0 0 0 0 0 0 0 0 0 0 0 0 0 0 0 0 0 0 0 0 0 0 0 0 0 0 0 0 0 0 0 0 0 0 0 0 0 0 0 0 0 0 0
0 0 0 0 0 0 0 0 0 0 0 0 0 0 0 0 0 0 0 0 0 0 0 0 0 0 0 0 0 0 0 0 0 0 0 0 0 0 0 0 0 0 0 0 0 0 0 0 0
0 0 0 0 0 0 0 0 0 -0 -0 0 0 0 0 0 0 0 0 0 0 0 0 0 0 0 0 0 0 0 0 0 0 0 0 0 0 0 0 0 0 0 0 0 0 0 0 0 0
0 0 0 0 0 0 0 0 0 -0 0 0 0 0 0 0 0 0 0 0 0 0 0 0 0 0 0 0 0 0 0 0 0 0 0 0 0 0 0 0 0 0 0 0 0 0 0 0 0
0 0 0 0 0 0 0 0 0 0 0 0 0 0 0 0 0 0 0 0 0 0 0 0 0 0 0 0 0 0 0 0 0 0 0 0 0 0 0 0 0 0 0 0 0 0 0 0 0
0 0 0 0 0 0 0 0 0 0 0 0 0 0 0 0 0 0 0 0 0 0 0 0 0 0 0 0 0 0 0 0 0 0 0 0 0 0 0 0 0 0 0 0 0 0 0 0 0
0 0 0 0 0 0 0 0 0 0 0 -0 -0 0 0 0 0 0 0 0 0 0 0 0 0 0 0 0 0 0 0 0 0 0 0 0 0 0 0 0 0 0 0 0 0 0 0 0 0
0 0 0 0 0 0 0 0 0 0 0 0 0 0 0 0 0 0 0 0 0 0 0 0 0 0 0 0 0 0 0 0 0 0 0 0 0 0 0 0 0 0 0 0 0 0 0 0 0
0 0 0 0 0 0 0 0 0 0 0 0 0 0 0 0 0 0 0 0 0 0 0 0 0 0 0 0 0 0 0 0 0 0 0 0 0 0 0 0 0 0 0 0 0 0 0 0 0
0 0 0 0 0 0 0 0 0 0 0 0 0 0 0 0 0 0 0 0 0 0 0 0 0 0 0 0 0 0 0 0 0 0 0 0 0 0 0 0 0 0 0 0 0 0 0 0 0
0 0 0 0 0 0 0 0 0 0 0 0 0 0 0 0 0 0 0 0 0 0 0 0 0 0 0 0 0 0 0 0 0 0 0 0 0 0 0 0 0 0 0 0 0 0 0 0 0
0 0 0 0 0 0 0 0 0 0 0 0 0 0 0 0 0 0 0 0 0 0 0 0 0 0 0 0 0 0 0 0 0 0 0 0 0 0 0 0 0 0 0 0 0 0 0 0 0
0 0 0 0 0 0 0 0 0 0 0 0 0 0 0 0 0 0 0 0 0 0 0 0 0 0 0 0 0 0 0 0 0 0 0 0 0 0 0 0 0 0 0 0 0 0 0 0 0
0 0 0 0 0 0 0 0 0 0 0 0 0 0 0 0 0 0 0 0 0 0 0 0 0 0 0 0 0 0 0 0 0 0 0 0 0 0 0 0 0 0 0 0 0 0 0 0 0
0 0 0 0 0 0 0 0 0 0 0 0 0 0 0 0 0 0 0 0 0 0 0 0 0 0 0 0 0 0 0 0 0 0 0 0 0 0 0 0 0 0 0 0 0 0 0 0 0
Wind_Speed
13 10 6 3 3 4 4 2 2 3 3 4 5 4 4 5 4 5 3 4 5 7 7 6 6 7 7 7 7 7 7 7 7 7 7 7 7 7 7 7 7 7 8 8 8 9 9 8 8
9 7 4 3 4 4 3 3 3 4 4 3 3 3 3 6 6 6 3 4 5 6 7 6 6 7 7 7 7 7 6 6 6 6 7 6 7 7 6 6 6 7 7 7 8 8 8 8 8
9 6 3 3 3 3 1 3 6 6 5 2 2 3 3 5 5 4 4 4 5 6 6 6 6 6 6 6 6 6 5 6 6 6 6 6 6 6 6 6 6 6 7 7 8 8 8 8 8
5 3 3 3 5 2 1 3 5 6 3 1 1 3 5 5 3 4 5 5 5 6 6 7 6 6 6 6 5 5 5 5 5 6 6 6 6 6 6 6 6 6 6 7 7 7 8 7 7
3 2 3 5 5 1 1 1 2 3 3 2 1 1 5 4 6 6 5 5 5 5 6 6 5 5 5 5 4 4 4 5 5 5 6 6 6 5 5 5 5 6 6 6 7 7 7 7 7
3 2 4 5 4 2 1 1 0 1 1 1 0 1 5 4 4 4 4 4 5 5 5 6 5 4 4 4 4 4 4 4 4 5 5 5 5 5 4 4 5 5 5 5 6 7 7 7 7
3 3 5 5 3 2 2 1 0 1 1 0 1 1 5 4 4 4 3 3 4 5 5 4 4 4 3 3 3 3 4 4 4 4 4 4 4 3 3 5 5 5 5 5 5 6 6 6 6
2 3 5 4 3 2 1 1 1 2 1 1 1 1 4 4 4 4 4 3 3 4 4 4 3 3 3 2 3 3 3 3 3 4 4 4 3 3 3 4 4 4 5 5 5 5 5 5 5
2 3 4 2 2 1 2 1 0 0 1 0 1 3 4 8 6 4 3 3 3 3 3 3 3 2 2 2 2 2 3 3 4 4 4 3 1 1 2 3 3 4 4 5 4 4 4 4 4
2 3 2 2 3 1 1 1 1 1 3 3 2 3 5 7 6 5 4 5 4 3 3 2 2 2 2 2 2 2 1 2 2 2 2 1 1 1 2 3 4 3 3 3 3 3 3 2 1
1 1 1 2 4 2 1 2 2 2 3 3 3 5 5 6 5 5 5 4 4 4 3 3 2 2 1 1 1 1 1 1 1 1 1 1 1 1 1 1 2 2 2 1 2 2 1 1 1
1 1 2 2 3 3 2 2 3 4 4 2 1 3 6 6 6 6 5 4 4 3 3 3 2 2 1 1 1 1 1 1 1 1 1 1 1 1 0 1 1 1 1 1 1 1 1 1 1
2 2 1 0 1 2 3 4 4 5 5 2 1 2 5 6 5 5 4 3 4 4 3 3 3 2 2 1 1 1 1 1 1 1 0 1 1 0 0 0 1 1 1 1 1 1 1 1 1
1 1 0 2 2 2 4 5 5 6 4 4 3 4 5 6 6 5 4 4 4 4 4 3 3 3 2 1 1 1 1 1 1 1 1 1 1 1 1 1 1 1 1 1 1 1 1 1 1
1 1 2 3 3 2 3 6 7 6 5 5 5 5 6 6 6 6 6 5 5 5 4 4 3 3 2 2 1 1 1 1 1 1 1 1 1 1 1 1 1 1 1 1 1 1 1 1 1
3 3 3 2 3 2 3 6 3 4 5 5 5 5 5 6 6 5 5 5 5 5 5 4 3 3 3 2 1 1 1 1 1 1 1 1 1 2 1 1 1 1 1 1 1 1 1 1 0
4 3 4 3 3 2 4 6 3 3 5 5 5 4 5 5 5 5 5 5 5 5 5 5 4 3 3 2 1 1 1 1 1 1 1 1 1 1 1 1 1 1 1 1 1 1 1 1 0
2 3 4 4 2 3 6 8 6 4 6 6 5 5 4 5 5 4 5 5 5 5 5 5 4 3 2 2 1 1 1 1 1 1 1 1 0 1 1 1 2 2 1 1 1 1 1 1 0
4 5 6 4 1 4 8 10 8 6 6 6 6 5 5 5 5 5 5 5 5 5 5 5 5 4 3 2 2 2 1 1 1 1 1 1 1 0 1 1 2 2 2 1 1 2 1 0 0
5 6 6 3 1 4 7 10 8 7 7 7 6 6 5 4 5 5 5 5 5 6 6 5 5 5 4 3 2 1 1 1 1 1 1 1 1 1 1 1 1 2 2 1 1 1 1 1 1
4 4 4 5 6 5 6 8 5 5 6 6 6 5 5 5 5 6 6 5 5 6 6 5 5 5 4 3 2 2 1 1 1 1 1 1 1 1 1 2 1 2 2 2 2 2 2 2 1
4 2 3 5 4 3 2 6 5 5 6 7 6 6 6 6 6 6 6 6 6 6 5 5 5 5 5 4 3 4 3 2 2 2 1 1 1 2 2 2 2 2 2 2 3 2 2 2 2
1 3 3 4 4 5 4 4 7 4 6 8 8 7 7 6 6 6 6 6 5 5 5 5 5 5 5 4 4 4 3 2 1 1 2 2 2 2 2 2 2 2 2 2 2 2 2 2 2
1 3 3 3 2 5 5 4 6 4 6 6 7 7 7 6 5 5 5 5 5 5 5 5 5 5 5 5 5 4 4 3 2 2 2 2 1 2 2 2 2 2 2 2 3 3 3 3 2
2 0 1 2 1 6 3 4 8 4 2 4 6 6 6 5 5 5 5 6 5 5 5 5 5 5 5 5 5 4 4 4 4 3 3 2 2 2 2 2 2 2 2 2 2 2 3 3 3
3 2 2 2 3 4 2 6 5 1 2 2 3 5 6 6 5 5 5 5 5 5 5 5 5 5 5 5 5 4 4 3 3 3 2 3 2 2 2 2 2 2 2 2 2 2 2 2 3
2 3 1 1 1 3 6 4 2 1 1 2 2 3 4 5 5 5 4 4 5 5 5 6 5 4 4 4 4 4 4 3 3 3 2 2 2 2 2 2 2 2 2 2 2 2 2 2 2
2 1 1 2 2 4 5 4 4 3 3 3 3 3 3 4 4 4 4 4 3 4 4 5 5 5 4 4 4 4 4 4 3 3 2 2 2 2 2 2 2 2 2 2 2 2 2 2 2
4 3 3 2 3 3 4 5 1 3 4 4 4 3 3 4 4 4 3 3 3 3 4 4 4 4 4 4 4 3 3 3 3 3 3 3 2 2 3 2 2 2 2 2 2 2 3 3 3
3 4 5 3 4 4 3 8 2 2 2 2 2 2 2 3 3 3 4 3 3 3 4 4 4 4 4 4 4 4 3 3 3 3 3 3 3 3 2 2 2 2 2 2 3 3 3 3 3
Wind_Direction
303 281 264 258 240 232 229 217 117 83 60 46 26 15 36 41 32 92 117 89 98 115 119 114 91 88 83 78 74 68 69 72 71 69 65 68 70 70 70 69 67 69 72 75 77 74 76 73 71
298 292 274 250 246 242 226 183 129 83 79 71 46 20 49 73 70 97 109 101 108 113 118 117 95 91 89 84 77 70 67 71 71 72 70 70 71 71 70 67 65 71 72 74 77 77 77 74 73
279 269 267 253 243 253 266 71 96 92 80 67 80 50 37 67 84 99 111 122 115 112 115 113 100 96 94 91 84 77 69 72 72 76 74 72 69 69 68 66 63 69 72 77 80 79 78 73 73
275 241 242 252 249 264 18 70 98 116 108 75 90 110 89 54 59 90 120 129 121 115 113 116 106 102 97 92 88 84 78 78 73 74 72 70 70 67 65 62 65 70 72 76 78 80 78 75 72
249 250 235 239 244 240 31 44 120 140 142 136 201 117 102 80 82 105 125 135 126 117 113 121 110 105 101 97 91 87 82 78 75 73 69 67 65 64 61 62 66 73 73 74 77 79 80 77 74
260 250 239 234 226 190 163 293 115 112 147 139 183 228 103 107 105 116 124 134 127 119 115 125 117 108 103 99 89 78 74 72 74 69 64 63 62 64 63 64 73 76 77 79 79 83 84 80 75
270 263 256 253 231 221 166 196 222 235 260 324 346 208 115 125 118 125 123 127 123 119 119 126 136 127 108 93 82 73 65 68 75 71 65 57 56 59 59 74 76 79 81 81 81 87 85 81 77
299 273 250 250 229 226 137 156 32 320 311 18 351 275 130 139 129 131 126 122 116 116 122 129 137 141 137 122 94 74 62 70 73 70 65 60 61 66 67 71 76 86 85 83 86 91 87 80 74
285 253 246 269 271 134 127 194 150 8 302 34 51 28 83 124 131 135 138 137 126 121 125 130 136 140 138 144 119 104 86 79 76 73 71 65 62 96 92 80 74 82 84 82 81 87 87 76 68
247 246 261 345 349 28 158 300 274 206 232 209 156 102 118 137 150 161 169 164 156 151 144 135 140 137 140 139 125 134 122 111 101 97 95 82 47 51 66 72 80 82 87 85 81 79 74 70 75
300 262 331 7 4 11 353 321 311 258 251 240 197 159 155 163 170 180 186 178 170 162 153 146 141 134 123 121 131 118 117 120 112 115 112 83 69 66 73 90 99 112 114 108 93 85 62 57 61
246 320 328 340 351 335 319 301 287 257 262 323 330 157 164 179 187 192 193 184 172 163 156 148 137 128 122 129 134 124 114 111 97 102 78 96 103 93 109 129 135 137 129 131 116 100 84 63 55
240 250 287 284 293 308 300 271 266 259 266 264 273 171 180 190 201 200 190 179 174 174 166 155 141 137 137 140 138 130 132 124 126 139 148 142 139 150 131 155 146 149 131 136 123 105 78 68 51
85 77 327 289 257 260 271 269 257 253 241 224 216 214 205 199 202 196 186 187 181 180 174 159 150 149 147 146 158 166 153 147 136 137 150 177 165 162 166 193 158 150 140 135 128 123 92 68 69
165 215 245 240 247 231 268 264 236 239 214 217 218 214 218 208 200 196 189 190 186 182 175 167 164 160 165 162 174 165 153 150 148 145 140 169 175 165 183 188 160 152 138 124 115 105 92 83 78
216 232 240 205 229 207 239 264 238 201 205 217 217 213 214 210 199 192 189 185 179 174 172 175 174 174 173 164 177 167 157 157 144 132 127 162 182 175 175 173 160 148 132 128 125 116 111 118 122
216 243 249 230 201 218 235 261 248 214 225 234 223 220 212 205 198 190 180 177 178 173 172 173 176 173 170 159 163 163 146 146 139 130 134 152 117 143 170 162 151 141 134 141 150 128 143 155 163
230 253 261 244 200 248 250 258 259 238 236 238 226 219 215 206 198 185 175 174 176 173 171 170 169 165 155 147 148 151 120 125 128 141 149 138 126 141 170 159 149 138 132 144 146 145 141 162 174
299 288 282 280 270 263 256 264 260 239 232 239 231 217 213 206 185 172 170 171 173 170 169 171 172 170 161 163 171 178 188 184 150 157 145 142 129 142 145 171 150 144 151 165 166 155 139 158 94
276 279 285 300 330 284 275 271 251 230 225 224 222 216 211 199 182 171 172 170 178 175 177 179 181 175 179 182 176 168 150 174 179 166 157 160 157 171 162 164 162 155 150 149 168 163 161 202 165
268 272 291 298 305 270 284 280 233 218 219 220 217 210 205 198 192 178 173 176 183 181 182 184 183 179 182 173 149 128 124 137 168 204 193 191 180 176 164 177 176 171 165 178 186 180 182 205 219
267 318 298 295 302 287 276 290 252 209 215 217 213 206 203 195 194 184 176 181 188 185 180 181 181 179 179 171 169 171 181 192 204 199 193 190 192 192 182 188 188 184 177 188 196 188 183 180 201
281 328 293 282 283 284 251 258 271 200 222 220 210 202 195 189 187 181 179 182 184 178 177 178 176 179 178 178 182 189 198 198 186 176 179 195 206 201 193 187 193 194 191 194 193 189 182 182 189
267 279 253 252 270 269 231 223 272 218 218 207 198 193 183 177 173 173 171 168 175 171 172 174 177 183 182 182 190 193 196 193 185 193 197 202 201 202 200 193 197 200 197 195 199 194 188 190 188
223 271 358 325 274 254 186 217 252 245 215 182 178 173 167 167 169 171 173 174 175 175 177 179 183 190 185 184 194 199 199 197 198 202 202 197 199 206 208 204 208 206 203 197 196 197 197 190 189
219 209 177 233 261 289 246 234 252 172 101 100 140 161 163 169 170 173 179 179 179 179 180 182 185 191 186 186 196 199 196 201 207 205 197 199 208 206 195 203 209 213 205 197 192 195 200 188 194
213 210 225 214 255 276 257 249 286 97 113 156 160 159 173 176 175 173 174 178 178 177 182 181 181 186 185 186 190 197 197 200 206 202 196 196 204 197 189 197 203 208 206 197 192 193 193 187 193
269 287 169 180 222 269 272 250 241 205 206 194 183 186 186 168 167 169 169 174 175 175 177 174 179 183 184 184 189 196 199 199 199 193 194 195 199 196 189 192 195 197 199 192 186 182 181 185 204
187 212 217 226 233 231 275 270 276 173 171 179 194 188 176 170 171 171 166 165 165 167 169 174 181 180 183 189 192 196 198 192 187 193 198 195 194 193 197 196 191 193 201 197 192 196 190 197 210
219 221 195 200 241 233 257 270 321 76 109 142 175 167 166 164 169 164 158 161 167 175 177 183 187 187 191 191 192 197 194 187 190 201 201 189 191 193 194 194 195 198 202 201 194 200 204 208 212